SCP
0 -0 -0 0 -0 -0 -0 -0 -0 0 0 0 0 0 0 0 0 0 0 0 0 0 0 0 0 0 0 0 0 0 0 0 1 1 1 1 0 1 1 1 1 1 1
0 0 0 0 0 0 0 0 0 0 0 0 0 0 0 0 0 0 0 0 0 0 0 0 0 0 0 0 0 0 1 1 1 1 1 1 1 1 1 1 1 1 1
0 0 0 0 0 0 0 0 0 0 0 0 0 0 0 0 0 0 0 0 0 0 0 0 0 0 0 0 0 0 1 1 1 1 1 1 1 1 1 1 1 1 1
0 0 0 0 0 0 0 0 0 0 0 0 0 0 0 0 0 0 0 0 0 0 0 0 0 0 0 0 0 0 0 1 1 1 1 1 1 1 1 1 1 1 1
0 0 0 0 0 0 0 0 0 0 0 0 0 0 0 0 0 0 0 0 0 0 0 0 0 0 0 0 0 0 1 1 2 2 1 1 1 2 2 2 2 1 1
0 0 0 0 0 0 0 0 0 0 0 0 0 0 0 0 0 0 0 0 0 0 0 0 0 0 0 0 0 1 2 1 2 2 2 2 2 2 1 1 1 0 0
0 0 0 0 0 0 0 0 0 0 0 0 0 0 0 0 0 0 0 0 0 0 0 0 0 0 0 0 0 0 1 2 2 2 3 2 1 1 1 0 0 1 1
0 0 0 0 0 0 0 0 0 0 0 0 0 0 0 0 0 0 0 0 0 0 0 0 0 0 0 0 0 0 1 1 2 3 1 1 1 1 0 1 1 0 1
0 0 0 0 0 0 0 0 0 0 0 0 0 0 0 0 0 0 0 0 0 0 0 0 0 0 0 0 0 0 0 1 2 1 1 1 1 1 1 1 1 0 0
0 0 0 0 0 0 0 0 0 0 0 0 0 0 0 0 0 0 -0 -0 -0 -0 0 0 0 0 0 0 0 0 0 0 1 1 1 1 1 1 0 0 0 0 0
0 0 0 0 0 0 0 0 0 0 0 0 0 0 0 0 0 0 0 0 0 0 0 0 0 0 0 0 0 0 0 0 1 1 1 1 1 0 0 0 0 0 0
0 0 0 0 0 0 0 0 0 0 0 0 0 0 0 0 0 0 0 0 0 0 0 0 0 0 0 0 0 -0 0 0 0 0 0 0 0 0 0 0 0 0 0
0 0 0 0 0 0 0 0 0 0 0 0 0 0 0 0 0 0 0 0 0 0 0 0 0 0 0 0 0 0 0 0 0 0 0 0 0 0 0 0 0 0 0
0 0 0 0 0 0 0 0 0 0 0 0 0 0 0 0 0 0 0 0 0 0 0 0 0 0 0 0 0 0 0 0 0 0 -0 -0 0 0 0 0 0 0 0
0 0 0 0 0 0 0 0 0 0 0 0 0 0 0 0 -0 -0 -0 0 0 0 0 0 -0 0 0 0 0 0 0 0 0 0 -0 -0 0 0 0 0 0 0 0
0 0 0 0 0 0 0 -0 -0 -0 -0 0 0 0 0 0 0 -0 0 0 0 0 0 -0 0 -0 -0 -0 -0 -0 0 0 0 0 0 -0 -0 0 0 0 0 0 0
0 0 0 0 0 0 0 0 -0 -0 -0 -0 -0 0 0 0 0 0 -0 0 0 0 -0 -0 0 0 0 -0 -0 -0 0 0 0 -0 -0 0 0 0 0 0 0 0 0
0 0 0 0 0 0 0 0 0 0 -0 -0 -0 0 0 0 0 0 0 0 0 -0 0 0 0 0 0 0 0 -0 -0 -0 0 0 -0 0 0 0 0 0 -0 -0 0
0 0 0 0 0 0 0 0 0 0 0 0 0 0 -0 0 0 0 0 -0 -0 -0 0 0 0 -0 0 0 0 -0 -0 0 0 -0 -0 -0 -0 -0 0 0 0 0 0
0 0 0 0 0 0 0 0 0 0 0 0 0 0 -0 -0 -0 -0 -0 -0 0 0 0 0 0 0 0 -0 -0 -0 0 0 0 0 -0 -0 -0 -0 -0 -0 -0 -0 0
0 0 0 0 0 0 0 0 0 0 0 0 0 -0 -0 0 -0 -0 -0 0 0 0 0 0 0 0 -0 -0 -0 -0 -0 -0 0 0 0 0 0 -0 -0 -0 -0 -0 -0
0 0 0 0 0 0 0 0 0 0 0 0 0 -0 0 -0 -0 -0 -0 -0 0 0 0 -0 0 0 0 -0 -0 -0 -0 -0 -0 0 0 0 0 -0 -0 -0 -0 -0 -0
0 0 0 0 0 0 0 0 0 0 0 0 0 0 -0 -0 0 0 -0 0 0 0 -0 -0 0 0 0 0 -0 -0 -0 -0 -0 0 0 0 0 -0 -0 -0 -0 -0 -0
0 0 0 0 0 0 0 0 0 0 0 0 0 0 -0 0 0 0 0 0 0 0 0 -0 0 -0 -0 -0 0 -0 -0 -0 0 0 0 0 0 -0 -0 -0 -0 -0 -0
0 0 0 0 0 0 0 0 -0 0 0 -0 0 -0 0 0 0 0 0 0 0 -0 -0 -0 -0 -0 -0 -0 0 0 0 0 0 0 0 0 0 -0 0 -0 -0 -0 -0
0 0 0 0 0 -0 -0 -0 0 -0 -0 -0 0 0 0 0 0 0 0 0 0 0 0 0 0 -0 -0 0 0 0 0 0 0 0 0 0 0 0 -0 0 -0 -0 -0
Wind_Speed_500mb
42 45 44 46 49 55 61 64 65 68 72 76 76 75 72 71 68 68 69 63 61 61 59 60 63 63 66 71 76 73 64 61 64 67 68 69 69 69 70 63 59 56 60
39 43 40 39 50 58 61 64 65 66 67 70 72 70 72 73 73 70 69 70 66 61 59 62 62 64 65 65 70 81 77 68 64 68 68 65 67 69 71 65 60 59 60
35 37 38 46 59 65 68 69 66 66 67 66 66 66 69 69 67 63 59 57 59 60 56 54 56 60 63 64 65 68 81 80 69 66 69 64 59 66 65 62 60 57 57
39 42 45 56 65 70 74 71 68 66 63 63 63 62 61 57 56 55 55 54 53 53 49 41 47 55 59 60 60 64 66 77 76 71 66 68 61 59 68 64 64 54 50
41 45 52 61 68 74 76 69 66 59 57 57 56 56 53 51 48 47 45 46 41 40 39 46 47 50 55 58 56 58 63 65 74 68 70 63 66 68 69 69 64 59 56
47 49 57 64 71 74 73 71 65 55 52 52 51 49 46 34 36 30 32 45 41 32 36 40 47 50 49 51 50 55 56 62 66 70 66 64 60 50 59 55 67 69 64
51 57 61 67 72 73 72 66 59 55 53 46 51 48 45 38 22 38 52 36 30 30 38 43 48 48 48 44 49 53 55 55 59 66 56 55 56 56 56 54 58 57 57
53 56 62 69 69 71 67 57 51 50 47 42 43 48 33 39 22 55 45 25 38 36 48 43 43 44 43 41 44 48 48 49 50 55 55 55 55 47 45 48 54 57 53
54 60 67 68 67 65 57 51 45 42 47 46 39 28 21 18 58 52 47 33 55 50 53 39 38 38 40 41 38 38 41 43 43 45 47 52 45 33 35 36 42 43 44
60 64 65 67 67 55 50 48 44 45 44 43 41 29 27 39 38 37 64 59 59 60 45 40 36 33 37 35 30 27 27 32 35 35 38 34 33 34 28 24 29 34 37
60 62 64 66 56 48 47 48 41 39 35 37 35 34 33 37 35 46 51 66 69 55 51 31 30 29 26 17 11 16 20 32 51 47 57 44 33 25 22 20 21 15 16
62 60 56 50 42 36 37 36 36 34 33 32 31 28 26 31 39 41 51 57 62 65 52 40 23 23 18 13 23 13 15 29 21 52 43 29 24 19 17 15 16 18 16
44 40 41 33 28 27 27 33 39 39 34 32 31 31 26 30 32 38 45 52 57 60 48 38 22 16 17 9 12 15 9 6 12 7 8 8 8 8 9 11 14 16 18
28 32 29 24 28 32 39 38 42 37 35 32 34 30 29 29 27 35 40 45 54 42 45 42 20 5 3 13 8 8 8 11 8 5 8 9 4 5 9 11 9 10 13
27 27 23 27 30 29 31 36 41 38 35 30 28 29 29 28 28 35 40 31 32 31 42 28 22 19 3 9 9 11 20 23 15 16 17 15 9 4 1 2 2 3 3
26 28 25 25 26 28 25 32 40 38 27 25 29 23 24 22 22 28 27 24 23 22 18 35 10 21 23 16 13 13 29 35 32 22 17 15 16 13 8 9 6 5 5
28 27 24 24 24 27 24 24 33 39 28 25 31 27 29 28 22 26 27 26 25 19 24 21 24 10 10 16 17 19 24 30 34 25 17 19 18 14 11 10 12 11 9
25 25 24 24 21 25 28 23 25 32 34 36 33 33 36 37 34 28 30 27 26 22 17 23 25 11 16 10 10 21 27 27 28 26 25 21 19 13 13 14 12 10 9
24 24 24 22 21 25 27 20 26 27 27 28 31 34 38 38 33 30 29 28 23 18 10 15 26 17 1 11 21 21 24 24 28 27 29 27 24 20 15 18 18 18 24
25 23 22 20 21 26 26 20 19 21 24 27 29 34 39 39 36 30 29 28 18 14 7 11 24 14 22 22 17 19 25 28 30 29 28 27 24 21 22 27 31 31 33
23 19 22 19 21 27 29 25 25 27 27 25 28 38 46 45 33 25 24 26 15 9 11 14 22 28 27 20 12 12 23 30 32 28 28 28 28 29 30 30 30 32 33
23 18 23 25 30 28 29 30 30 24 21 27 27 41 51 48 30 18 13 20 10 6 12 12 20 26 25 19 9 15 17 15 22 28 33 38 38 38 39 36 36 38 38
26 22 25 29 33 28 38 37 31 19 18 25 28 46 50 45 25 12 12 14 7 7 15 9 14 29 25 12 11 15 13 23 29 23 38 42 39 44 41 40 39 39 37
31 28 25 27 33 32 34 34 31 27 23 24 32 43 43 35 25 18 14 11 8 16 12 14 11 19 20 9 15 9 11 19 24 24 30 37 34 41 39 41 40 38 38
31 32 33 33 35 36 32 31 29 25 20 29 34 34 31 28 24 17 14 14 19 22 25 21 20 24 22 18 11 7 12 13 23 25 25 32 35 39 39 40 41 39 40
34 31 31 31 33 36 25 15 16 21 23 25 26 19 23 24 23 21 16 23 29 28 24 30 32 27 24 18 14 13 16 10 14 17 22 22 19 26 37 38 40 40 41
Wind_Direction_500mb
349 347 342 340 338 337 332 326 320 314 310 308 307 307 307 307 305 302 299 296 295 290 281 275 269 270 267 264 261 258 259 259 253 249 248 251 248 247 252 260 257 253 250
346 339 335 336 336 335 332 328 323 316 311 308 306 305 305 305 306 305 302 297 295 292 284 276 274 271 270 268 264 259 255 258 258 253 252 250 248 243 248 257 258 255 252
338 334 329 331 336 338 335 331 327 321 315 312 308 306 304 306 305 306 304 299 295 294 295 285 279 277 272 268 267 263 257 253 254 254 251 247 250 240 246 253 253 254 251
333 332 330 329 335 337 334 329 325 321 317 313 309 307 309 309 308 304 299 298 297 295 298 291 282 281 280 274 267 264 262 254 249 250 251 249 241 237 242 251 251 248 247
326 327 330 331 333 332 332 326 322 320 318 317 312 313 313 311 308 303 297 299 308 307 297 300 293 286 285 282 273 264 259 259 246 246 246 244 243 248 248 254 248 244 237
323 325 329 330 328 328 327 324 321 319 319 319 317 318 320 324 326 319 316 316 318 311 300 301 299 292 288 281 271 261 257 258 244 240 246 245 247 251 252 250 251 243 242
322 321 323 323 323 322 323 323 320 319 322 327 332 328 335 330 334 329 326 322 315 321 319 311 305 300 296 279 266 255 254 254 244 239 241 237 238 237 241 241 239 237 237
312 315 320 320 320 319 322 320 318 319 323 332 327 330 329 336 317 326 334 329 334 330 328 318 315 308 298 290 277 255 255 246 243 231 233 229 228 224 234 233 231 237 241
313 317 317 318 319 321 322 322 321 319 324 316 317 322 323 318 326 331 333 321 325 325 325 315 317 320 308 293 283 262 250 238 211 226 220 210 217 232 229 225 234 241 246
311 313 316 319 320 319 321 323 322 317 318 314 317 319 311 317 319 325 323 329 328 326 332 321 325 310 326 312 296 267 234 225 218 217 215 206 198 203 195 209 228 236 244
309 313 316 318 315 317 318 322 323 321 322 318 318 316 317 316 323 325 317 325 329 341 345 346 338 315 327 5 346 223 213 197 180 164 151 167 183 201 197 211 218 228 239
313 318 319 318 318 321 327 334 336 336 329 325 321 315 307 318 316 320 316 319 328 331 347 345 324 319 305 327 18 48 80 141 100 143 162 183 191 187 190 211 225 239 249
323 337 342 351 355 347 340 337 339 330 327 327 327 324 311 303 309 313 313 316 321 327 341 349 344 303 284 309 347 2 37 85 344 332 104 183 189 203 230 243 242 250 252
328 334 346 7 350 336 338 339 343 340 333 324 321 316 323 321 312 313 314 313 317 323 335 329 325 73 312 75 55 357 344 343 14 259 241 232 208 230 244 226 241 247 244
331 336 331 341 346 346 348 357 350 345 335 337 333 324 321 325 309 307 309 312 315 310 323 329 357 328 12 62 64 70 72 72 70 80 88 94 105 103 156 191 187 277 251
331 336 335 336 339 346 353 358 357 352 356 6 4 2 349 335 323 321 325 332 333 326 324 336 323 133 115 113 98 94 98 86 79 76 79 84 84 70 66 59 68 77 53
326 327 329 333 339 348 349 355 358 7 10 359 1 4 8 8 359 351 344 345 344 354 340 346 149 82 149 112 94 91 97 93 88 80 77 73 74 70 56 60 62 62 59
331 324 327 333 334 343 345 343 357 6 11 19 17 6 12 9 8 355 352 345 348 355 4 143 133 116 146 104 89 85 83 80 76 70 76 75 64 51 45 59 58 50 50
338 335 330 334 331 333 340 348 349 355 359 4 0 356 357 354 358 358 348 347 353 358 26 193 150 124 141 120 94 74 71 70 71 65 65 69 72 76 70 49 42 65 80
338 338 344 335 335 337 337 334 329 333 341 347 346 354 353 349 347 346 352 357 349 12 64 203 165 161 151 119 67 77 75 70 69 69 66 67 70 73 67 59 66 72 76
346 347 343 342 339 340 342 338 322 328 328 335 336 347 351 347 341 336 344 353 7 49 133 183 165 146 143 118 69 73 78 76 72 70 72 71 74 79 80 76 77 71 65
347 343 345 344 346 347 351 344 331 328 324 322 326 341 348 346 346 343 339 346 16 111 133 159 175 158 153 117 80 81 43 62 69 62 77 78 82 85 81 75 70 67 61
344 330 337 344 345 350 350 346 348 338 318 326 336 343 345 346 359 0 346 355 28 139 127 147 173 178 151 85 120 83 55 76 80 83 89 82 76 72 69 74 70 62 57
335 330 326 325 327 326 332 333 342 345 331 319 342 342 350 360 15 18 10 22 62 110 111 130 160 175 135 114 114 81 78 63 77 95 94 83 76 70 67 64 64 63 57
335 336 330 324 320 315 313 322 328 341 355 342 338 347 360 8 16 33 40 88 97 103 99 114 116 127 135 117 103 59 77 53 77 96 99 88 87 80 67 66 65 66 60
336 329 325 328 330 336 310 311 329 352 350 345 353 11 10 25 39 44 86 107 116 109 110 120 121 124 121 117 106 100 45 65 54 82 110 90 90 85 69 65 66 62 58
Wind_Speed_850mb
42 45 44 46 49 55 61 64 65 68 72 76 76 75 72 71 68 68 69 63 61 61 59 60 63 63 66 71 76 73 64 61 64 67 68 69 69 69 70 63 59 56 60
39 43 40 39 50 58 61 64 65 66 67 70 72 70 72 73 73 70 69 70 66 61 59 62 62 64 65 65 70 81 77 68 64 68 68 65 67 69 71 65 60 59 60
35 37 38 46 59 65 68 69 66 66 67 66 66 66 69 69 67 63 59 57 59 60 56 54 56 60 63 64 65 68 81 80 69 66 69 64 59 66 65 62 60 57 57
39 42 45 56 65 70 74 71 68 66 63 63 63 62 61 57 56 55 55 54 53 53 49 41 47 55 59 60 60 64 66 77 76 71 66 68 61 59 68 64 64 54 50
41 45 52 61 68 74 76 69 66 59 57 57 56 56 53 51 48 47 45 46 41 40 39 46 47 50 55 58 56 58 63 65 74 68 70 63 66 68 69 69 64 59 56
47 49 57 64 71 74 73 71 65 55 52 52 51 49 46 34 36 30 32 45 41 32 36 40 47 50 49 51 50 55 56 62 66 70 66 64 60 50 59 55 67 69 64
51 57 61 67 72 73 72 66 59 55 53 46 51 48 45 38 22 38 52 36 30 30 38 43 48 48 48 44 49 53 55 55 59 66 56 55 56 56 56 54 58 57 57
53 56 62 69 69 71 67 57 51 50 47 42 43 48 33 39 22 55 45 25 38 36 48 43 43 44 43 41 44 48 48 49 50 55 55 55 55 47 45 48 54 57 53
54 60 67 68 67 65 57 51 45 42 47 46 39 28 21 18 58 52 47 33 55 50 53 39 38 38 40 41 38 38 41 43 43 45 47 52 45 33 35 36 42 43 44
60 64 65 67 67 55 50 48 44 45 44 43 41 29 27 39 38 37 64 59 59 60 45 40 36 33 37 35 30 27 27 32 35 35 38 34 33 34 28 24 29 34 37
60 62 64 66 56 48 47 48 41 39 35 37 35 34 33 37 35 46 51 66 69 55 51 31 30 29 26 17 11 16 20 32 51 47 57 44 33 25 22 20 21 15 16
62 60 56 50 42 36 37 36 36 34 33 32 31 28 26 31 39 41 51 57 62 65 52 40 23 23 18 13 23 13 15 29 21 52 43 29 24 19 17 15 16 18 16
44 40 41 33 28 27 27 33 39 39 34 32 31 31 26 30 32 38 45 52 57 60 48 38 22 16 17 9 12 15 9 6 12 7 8 8 8 8 9 11 14 16 18
28 32 29 24 28 32 39 38 42 37 35 32 34 30 29 29 27 35 40 45 54 42 45 42 20 5 3 13 8 8 8 11 8 5 8 9 4 5 9 11 9 10 13
27 27 23 27 30 29 31 36 41 38 35 30 28 29 29 28 28 35 40 31 32 31 42 28 22 19 3 9 9 11 20 23 15 16 17 15 9 4 1 2 2 3 3
26 28 25 25 26 28 25 32 40 38 27 25 29 23 24 22 22 28 27 24 23 22 18 35 10 21 23 16 13 13 29 35 32 22 17 15 16 13 8 9 6 5 5
28 27 24 24 24 27 24 24 33 39 28 25 31 27 29 28 22 26 27 26 25 19 24 21 24 10 10 16 17 19 24 30 34 25 17 19 18 14 11 10 12 11 9
25 25 24 24 21 25 28 23 25 32 34 36 33 33 36 37 34 28 30 27 26 22 17 23 25 11 16 10 10 21 27 27 28 26 25 21 19 13 13 14 12 10 9
24 24 24 22 21 25 27 20 26 27 27 28 31 34 38 38 33 30 29 28 23 18 10 15 26 17 1 11 21 21 24 24 28 27 29 27 24 20 15 18 18 18 24
25 23 22 20 21 26 26 20 19 21 24 27 29 34 39 39 36 30 29 28 18 14 7 11 24 14 22 22 17 19 25 28 30 29 28 27 24 21 22 27 31 31 33
23 19 22 19 21 27 29 25 25 27 27 25 28 38 46 45 33 25 24 26 15 9 11 14 22 28 27 20 12 12 23 30 32 28 28 28 28 29 30 30 30 32 33
23 18 23 25 30 28 29 30 30 24 21 27 27 41 51 48 30 18 13 20 10 6 12 12 20 26 25 19 9 15 17 15 22 28 33 38 38 38 39 36 36 38 38
26 22 25 29 33 28 38 37 31 19 18 25 28 46 50 45 25 12 12 14 7 7 15 9 14 29 25 12 11 15 13 23 29 23 38 42 39 44 41 40 39 39 37
31 28 25 27 33 32 34 34 31 27 23 24 32 43 43 35 25 18 14 11 8 16 12 14 11 19 20 9 15 9 11 19 24 24 30 37 34 41 39 41 40 38 38
31 32 33 33 35 36 32 31 29 25 20 29 34 34 31 28 24 17 14 14 19 22 25 21 20 24 22 18 11 7 12 13 23 25 25 32 35 39 39 40 41 39 40
34 31 31 31 33 36 25 15 16 21 23 25 26 19 23 24 23 21 16 23 29 28 24 30 32 27 24 18 14 13 16 10 14 17 22 22 19 26 37 38 40 40 41
Wind_Direction_850mb
349 347 342 340 338 337 332 326 320 314 310 308 307 307 307 307 305 302 299 296 295 290 281 275 269 270 267 264 261 258 259 259 253 249 248 251 248 247 252 260 257 253 250
346 339 335 336 336 335 332 328 323 316 311 308 306 305 305 305 306 305 302 297 295 292 284 276 274 271 270 268 264 259 255 258 258 253 252 250 248 243 248 257 258 255 252
338 334 329 331 336 338 335 331 327 321 315 312 308 306 304 306 305 306 304 299 295 294 295 285 279 277 272 268 267 263 257 253 254 254 251 247 250 240 246 253 253 254 251
333 332 330 329 335 337 334 329 325 321 317 313 309 307 309 309 308 304 299 298 297 295 298 291 282 281 280 274 267 264 262 254 249 250 251 249 241 237 242 251 251 248 247
326 327 330 331 333 332 332 326 322 320 318 317 312 313 313 311 308 303 297 299 308 307 297 300 293 286 285 282 273 264 259 259 246 246 246 244 243 248 248 254 248 244 237
323 325 329 330 328 328 327 324 321 319 319 319 317 318 320 324 326 319 316 316 318 311 300 301 299 292 288 281 271 261 257 258 244 240 246 245 247 251 252 250 251 243 242
322 321 323 323 323 322 323 323 320 319 322 327 332 328 335 330 334 329 326 322 315 321 319 311 305 300 296 279 266 255 254 254 244 239 241 237 238 237 241 241 239 237 237
312 315 320 320 320 319 322 320 318 319 323 332 327 330 329 336 317 326 334 329 334 330 328 318 315 308 298 290 277 255 255 246 243 231 233 229 228 224 234 233 231 237 241
313 317 317 318 319 321 322 322 321 319 324 316 317 322 323 318 326 331 333 321 325 325 325 315 317 320 308 293 283 262 250 238 211 226 220 210 217 232 229 225 234 241 246
311 313 316 319 320 319 321 323 322 317 318 314 317 319 311 317 319 325 323 329 328 326 332 321 325 310 326 312 296 267 234 225 218 217 215 206 198 203 195 209 228 236 244
309 313 316 318 315 317 318 322 323 321 322 318 318 316 317 316 323 325 317 325 329 341 345 346 338 315 327 5 346 223 213 197 180 164 151 167 183 201 197 211 218 228 239
313 318 319 318 318 321 327 334 336 336 329 325 321 315 307 318 316 320 316 319 328 331 347 345 324 319 305 327 18 48 80 141 100 143 162 183 191 187 190 211 225 239 249
323 337 342 351 355 347 340 337 339 330 327 327 327 324 311 303 309 313 313 316 321 327 341 349 344 303 284 309 347 2 37 85 344 332 104 183 189 203 230 243 242 250 252
328 334 346 7 350 336 338 339 343 340 333 324 321 316 323 321 312 313 314 313 317 323 335 329 325 73 312 75 55 357 344 343 14 259 241 232 208 230 244 226 241 247 244
331 336 331 341 346 346 348 357 350 345 335 337 333 324 321 325 309 307 309 312 315 310 323 329 357 328 12 62 64 70 72 72 70 80 88 94 105 103 156 191 187 277 251
331 336 335 336 339 346 353 358 357 352 356 6 4 2 349 335 323 321 325 332 333 326 324 336 323 133 115 113 98 94 98 86 79 76 79 84 84 70 66 59 68 77 53
326 327 329 333 339 348 349 355 358 7 10 359 1 4 8 8 359 351 344 345 344 354 340 346 149 82 149 112 94 91 97 93 88 80 77 73 74 70 56 60 62 62 59
331 324 327 333 334 343 345 343 357 6 11 19 17 6 12 9 8 355 352 345 348 355 4 143 133 116 146 104 89 85 83 80 76 70 76 75 64 51 45 59 58 50 50
338 335 330 334 331 333 340 348 349 355 359 4 0 356 357 354 358 358 348 347 353 358 26 193 150 124 141 120 94 74 71 70 71 65 65 69 72 76 70 49 42 65 80
338 338 344 335 335 337 337 334 329 333 341 347 346 354 353 349 347 346 352 357 349 12 64 203 165 161 151 119 67 77 75 70 69 69 66 67 70 73 67 59 66 72 76
346 347 343 342 339 340 342 338 322 328 328 335 336 347 351 347 341 336 344 353 7 49 133 183 165 146 143 118 69 73 78 76 72 70 72 71 74 79 80 76 77 71 65
347 343 345 344 346 347 351 344 331 328 324 322 326 341 348 346 346 343 339 346 16 111 133 159 175 158 153 117 80 81 43 62 69 62 77 78 82 85 81 75 70 67 61
344 330 337 344 345 350 350 346 348 338 318 326 336 343 345 346 359 0 346 355 28 139 127 147 173 178 151 85 120 83 55 76 80 83 89 82 76 72 69 74 70 62 57
335 330 326 325 327 326 332 333 342 345 331 319 342 342 350 360 15 18 10 22 62 110 111 130 160 175 135 114 114 81 78 63 77 95 94 83 76 70 67 64 64 63 57
335 336 330 324 320 315 313 322 328 341 355 342 338 347 360 8 16 33 40 88 97 103 99 114 116 127 135 117 103 59 77 53 77 96 99 88 87 80 67 66 65 66 60
336 329 325 328 330 336 310 311 329 352 350 345 353 11 10 25 39 44 86 107 116 109 110 120 121 124 121 117 106 100 45 65 54 82 110 90 90 85 69 65 66 62 58